Location: Augusta Medical Complex (historical)
(37.6959°N, 96.9735°W)
Time: 12:20:25
(UTC+00:00)

Daily predictions for brighter satellites

Satellite Brightness Start Highest point End
(mag) Time Altitude Azimuth Time Altitude Azimuth Time Altitude Azimuth
Cosmos 1400 Rocket 3.9 12:00:59 10° N 12:04:54 46° ENE 12:08:44 10° SSE
Cosmos 2333 Rocket 4.2 12:00:19 10° N 12:05:04 26° ENE 12:09:48 10° ESE
CZ-3B R/B 4.3 12:06:20 10° SW 12:09:51 19° S 12:17:02 10° SE
Cosmos 1408 3.6 12:09:08 10° SW 12:12:12 25° WNW 12:15:18 10° NNW
Cosmos 1725 Rocket 4.0 12:07:29 10° SSW 12:13:38 58° W 12:19:51 10° N
Cosmos 2016 Rocket 4.3 12:08:27 10° SSW 12:14:23 45° WNW 12:20:25 10° N
Cosmos 468 4.5 12:14:07 10° NNW 12:19:24 70° WSW 12:24:36 10° S
NOSS 3-4 (A) 3.9 12:13:20 10° NW 12:20:32 75° WSW 12:28:22 10° SSE
NOSS 3-4 (C) 3.9 12:13:27 10° NW 12:20:39 76° WSW 12:28:28 10° SSE
COSMO-SKYMED 1 3.1 12:16:38 10° SSW 12:20:40 38° W 12:24:44 10° NNW
PAYLOAD B 4.4 12:23:11 10° N 12:28:25 47° WNW 12:33:39 10° SW
BREEZE-M DEB (TANK) 3.0 12:20:32 10° NW 12:30:12 83° SW 12:33:14 10° SE
BREEZE-M DEB (TANK) 4.0 12:27:52 12° WNW 12:30:35 44° SSW 12:38:33 10° SE
Meteor 1-26 Rocket 4.2 12:25:39 10° N 12:31:20 83° W 12:36:50 10° S
USA 116 4.0 12:32:42 10° SSW 12:35:39 33° W 12:38:50 10° NNW
Cosmos 1633 4.2 12:33:18 10° SSE 12:36:41 39° E 12:40:05 10° NNE
USA 267 4.4 12:32:58 10° NE 12:39:15 48° SE 12:45:31 10° SSW
Tsikada Rocket 4.3 12:36:46 10° NNW 12:42:49 47° W 12:48:47 10° SSW
Cosmos 1269 Rocket 4.2 12:39:58 10° NNW 12:45:18 79° ENE 12:50:34 10° SSE
Cosmos 2237 4.4 12:39:57 10° NNW 12:45:31 55° WSW 12:51:02 10° S
Cosmos 494 Rocket 4.0 12:40:57 10° NNW 12:46:13 86° WSW 12:51:24 10° SSE
SeaSat 1 3.7 23:42:22 10° E 23:45:53 20° NE 23:49:25 10° N
Cosmos 1862 4.0 23:42:54 10° NNE 23:46:32 32° ENE 23:50:08 10° SE
Cosmos 1151 Rocket 3.8 23:46:34 10° SSE 23:50:24 31° E 23:54:16 10° NNE
Cosmos 1633 Rocket 3.6 23:46:52 10° N 23:50:58 36° ENE 23:55:02 10° SE
Okean O Rocket 3.8 23:52:02 10° SSW 23:55:56 31° W 23:59:49 10° NW
